Location: La Fresselle
(48.1829°N, 0.9529°W)
Time: 02:13:47
(UTC+00:00)

Daily predictions for brighter satellites

Satellite Brightness Start Highest point End
(mag) Time Altitude Azimuth Time Altitude Azimuth Time Altitude Azimuth
Cosmos 1461 2.8 00:01:31 10° NW 00:05:41 88° WSW 00:06:31 57° SSE
Cosmos 1867 3.7 00:05:01 43° S 00:06:28 57° ESE 00:11:51 10° NE
Nadezhda 2 Rocket 4.4 00:00:36 10° NNW 00:06:46 77° W 00:09:13 39° S
Cosmos 2221 Rocket 3.6 00:06:47 52° SSE 00:07:39 66° E 00:12:02 10° NNE
Cosmos 1674 Rocket 4.1 00:06:55 40° SE 00:07:44 45° E 00:11:52 10° NNE
USA 306 4.5 00:11:52 21° ESE 00:11:52 21° ESE 00:14:03 10° E
Cosmos 1674 2.5 00:10:51 70° SE 00:11:05 73° E 00:14:51 10° NNE
Cosmos 1238 Rocket 2.6 00:09:29 10° N 00:12:06 57° NE 00:12:06 57° NE
ATLAS CENTAUR R/B 2.3 00:09:12 10° NW 00:13:42 39° WSW 00:13:59 38° SW
SL-19 R/B 3.9 00:17:33 64° NW 00:17:33 64° NW 00:20:08 10° NNW
Cosmos 2322 Rocket 4.0 00:16:23 10° WSW 00:21:05 27° NW 00:25:50 10° N
ATLAS 5 CENTAUR R/B 3.2 00:07:33 10° NW 00:22:11 86° SW 00:24:39 30° SE
Cosmos 468 4.5 00:17:05 10° NNW 00:22:20 80° ENE 00:24:27 37° SSE
CZ-4C R/B 2.9 00:15:16 10° NW 00:22:29 75° SW 00:27:52 25° SSE
Cosmos 2333 Rocket 2.6 00:19:42 27° SW 00:22:45 58° WNW 00:28:22 10° NNE
Cosmos 1378 Rocket 3.7 00:22:19 49° SSE 00:23:16 63° E 00:27:40 10° NNE
Cosmos 2322 3.8 00:20:47 34° SW 00:23:23 75° WNW 00:29:09 10° NNE
Cosmos 1844 Rocket 4.2 00:21:33 10° NW 00:25:28 20° W 00:26:33 19° WSW
USA 215 3.6 00:21:15 10° NE 00:27:45 67° NNW 00:34:14 10° WSW
NOSS 0 Rocket 4.2 00:29:23 36° SSE 00:31:43 55° ESE 00:37:48 10° NE
PSLV R/B 3.7 00:29:27 10° N 00:33:49 72° WNW 00:35:01 47° SW
Meteor 2-10 Rocket 4.5 00:32:23 10° N 00:37:53 47° ENE 00:41:17 21° SE
ALOS 2 4.4 00:38:34 18° WSW 00:39:11 19° W 00:42:18 10° NW
Cosmos 2151 Rocket 3.8 00:35:44 10° NNW 00:40:02 54° W 00:40:53 46° SW
Cosmos 1745 Rocket 3.9 00:35:29 10° N 00:41:46 84° W 00:44:35 35° S
Cosmos 839 Rocket 4.2 00:36:34 10° NW 00:42:55 87° NE 00:49:12 15° SE
Okean 2 4.0 00:42:13 38° WSW 00:43:05 45° WNW 00:47:02 10° N
ADEOS Rocket 3.7 00:42:18 29° SW 00:44:06 35° W 00:49:31 10° NNW
Okean 2 Rocket 3.7 00:40:01 10° NNW 00:44:19 44° W 00:45:13 38° SW
USA 308 3.6 00:44:46 36° SE 00:44:46 36° SE 00:48:24 10° ENE
Cosmos 2219 Rocket 2.8 00:42:56 24° WSW 00:46:02 50° NW 00:51:30 10° NNE
Meteor 2-12 Rocket 4.4 00:43:14 10° N 00:49:21 82° E 00:52:26 31° SSE
Meteor 1-16 Rocket 4.3 00:43:39 10° NNW 00:49:35 72° W 00:52:02 36° S
Cosmos 1707 4.3 00:50:02 22° W 00:51:00 24° WNW 00:54:12 10° NNW
GP-B 3.5 00:52:07 10° N 00:56:31 56° E 00:58:07 35° SSE
Lacrosse 5 3.3 00:58:31 22° SE 00:59:19 23° SE 01:03:17 10° ENE
CZ-2D R/B 3.5 00:54:53 10° NNE 00:59:35 30° E 01:02:28 19° SE
Cosmos 1300 2.6 00:56:50 10° N 01:00:38 79° E 01:01:27 53° SSE
SL-14 R/B 3.1 01:02:27 56° SSW 01:03:12 81° W 01:07:05 10° N
ASTEX 1 4.3 00:58:45 10° N 01:03:17 38° WNW 01:05:07 28° WSW
USA 267 3.7 01:02:14 31° SSW 01:04:12 38° SW 01:10:15 10° WNW
Cosmos 883 Rocket 4.5 01:04:14 32° S 01:07:23 86° E 01:13:46 10° N
Cosmos 371 Rocket 3.2 01:06:03 40° SSW 01:07:48 85° WNW 01:12:41 10° NNE
USA 305 2.8 01:07:08 51° SSW 01:07:53 62° SE 01:12:01 10° ENE
Cosmos 2150 Rocket 3.9 01:06:08 37° SSW 01:08:12 82° WNW 01:13:24 10° NNE
NOSS 2-2 (C) 4.4 01:03:17 10° NW 01:08:19 60° SW 01:12:46 22° SSE
USA 229 DEB 4.0 01:02:35 10° NW 01:09:49 60° WSW 01:15:06 21° SSE
USA 229 4.0 01:02:41 10° NW 01:09:55 60° WSW 01:15:15 21° SSE
Cosmos 2237 Rocket 2.2 01:11:28 34° SSW 01:14:01 81° ESE 01:19:46 10° NNE
COSMOS 2428 3.5 01:12:17 21° WSW 01:15:46 43° NW 01:21:12 10° NNE
Cosmos 405 Rocket 3.7 01:18:03 29° W 01:18:52 33° WNW 01:22:21 10° N
Cosmos 1437 Rocket 3.5 01:15:37 10° NNW 01:19:01 33° W 01:19:16 32° WSW
Cosmos 304 Rocket 3.7 01:17:17 38° S 01:19:07 79° ESE 01:23:58 10° NNE
SL-16 R/B 3.1 01:14:48 10° SE 01:20:50 55° ENE 01:26:55 10° N
Lacrosse 5 rocket 3.1 01:21:54 17° SE 01:22:13 17° SE 01:24:48 10° E
Cosmos 1125 Rocket 3.7 01:20:00 31° SW 01:22:23 61° WNW 01:27:34 10° NNE
Okean 1 Rocket 3.8 01:18:55 10° NNW 01:23:00 38° W 01:24:05 33° SW
Cosmos 1953 3.2 01:22:12 10° NNW 01:25:49 33° W 01:26:26 31° WSW
SME Rocket 3.1 01:24:35 34° SSE 01:26:22 86° WSW 01:31:32 10° NNW
Resurs 1-4 Rocket 2.6 01:23:48 10° NNE 01:28:57 53° E 01:31:56 24° SSE
Cosmos 2297 4.4 01:26:49 10° NNW 01:32:29 55° ENE 01:38:06 10° SE
Cosmos 1943 Rocket 2.5 01:26:53 10° NNW 01:32:34 67° ENE 01:38:12 10° SE
MOZ.5/SAFIR/RUBIN 5/SL-8 3.9 01:33:59 33° SSW 01:35:53 58° W 01:40:36 10° NNW
Cosmos 1709 Rocket 4.2 01:30:13 10° NNW 01:36:10 54° W 01:39:17 28° SSW
Cosmos 1626 4.3 01:36:40 13° W 01:37:47 14° WNW 01:39:53 10° NNW
Cosmos 2315 Rocket 4.1 01:35:34 28° SSW 01:39:06 68° WNW 01:45:30 10° N
Cosmos 2184 Rocket 4.3 01:36:50 10° N 01:43:06 67° ENE 01:48:45 13° SSE
Cosmos 2278 Rocket 3.0 01:38:31 10° NW 01:43:32 33° WSW 01:45:23 27° SW
EO 1 Delta rocket 4.2 01:39:03 10° N 01:43:35 54° WNW 01:46:02 28° SW
ADEOS II 3.1 01:39:53 10° NNE 01:44:49 39° E 01:48:40 16° SSE
IDEFIX/ARIANE 42P 3.9 01:40:54 10° NNE 01:45:41 34° E 01:49:52 13° SSE
USA 306 2.9 01:47:33 25° WSW 01:49:52 78° NNW 01:54:04 10° ENE
Cosmos 2084 Rocket 3.2 01:49:15 37° SSW 01:50:34 66° SE 01:54:21 10° NE
Thor Agena Rocket 3.9 01:47:59 10° N 01:53:10 57° WNW 01:56:09 25° SW
USA 307 2.8 01:51:04 26° WSW 01:53:21 83° NNW 01:57:34 10° ENE
ERBS 2.1 01:54:54 39° WSW 01:55:51 70° NNW 01:58:55 10° NE
NPP 3.7 01:51:36 10° NNE 01:57:01 74° ESE 02:00:35 22° S
Cosmos 2369 Rocket 3.3 01:52:22 10° NNW 01:57:44 44° NE 02:03:03 10° SE
Cosmos 1455 Rocket 3.6 01:57:07 10° NNW 02:01:22 43° W 02:03:14 27° SW
SL-16 R/B 2.4 01:58:00 23° S 02:01:32 68° ESE 02:07:11 10° NNE
Cosmos 614 Rocket 4.3 01:56:25 10° NNW 02:01:37 66° ENE 02:06:47 10° SSE
CZ-4 R/B 3.7 01:57:20 10° NNE 02:02:01 83° WNW 02:04:41 25° SSW
EO 1 Del DPAF 4.3 01:59:48 10° NNE 02:03:02 33° E 02:05:16 17° SSE
Cosmos 1980 4.5 02:02:27 18° WSW 02:06:17 43° NW 02:11:41 10° NNE
Meteor 1-28 Rocket 3.6 02:03:36 13° SSE 02:06:49 61° ENE 02:10:31 10° N
COSMOS 2455 3.6 02:04:48 18° S 02:09:01 45° ESE 02:14:44 10° NE
Cosmos 332 Rocket 4.4 02:07:03 22° SW 02:09:48 46° WNW 02:14:26 10° NNE
USA 215 4.4 02:04:09 10° ENE 02:10:14 43° N 02:16:19 10° WNW
CZ-4C R/B 4.3 02:05:05 10° WNW 02:10:25 21° WSW 02:12:59 18° SW
Cosmos 1536 Rocket 3.9 02:08:03 18° S 02:11:10 61° E 02:15:30 10° NNE
Cosmos 1975 Rocket 4.0 02:16:47 21° WSW 02:19:03 34° WNW 02:23:09 10° N
Nadezhda 1 Rocket 4.2 02:15:05 14° S 02:20:38 76° E 02:26:56 10° NNE
Meteor 1-24 Rocket 3.9 02:17:04 21° SSW 02:20:47 60° WNW 02:26:12 10° N
UNK 3.8 02:19:10 18° S 02:22:28 59° WSW 02:27:03 10° NNW
MSX 4.4 02:17:13 10° NNE 02:22:53 55° E 02:28:25 11° S
USA 308 3.3 02:20:31 14° W 02:24:02 59° NNW 02:28:12 10° ENE
Cosmos 1455 2.3 02:21:34 10° NNW 02:25:12 53° W 02:27:22 22° SSW
Cosmos 1025 Rocket 3.9 02:23:55 20° SW 02:26:14 35° WNW 02:30:13 10° N
MOS 1 Rocket 3.1 02:23:22 17° S 02:26:32 61° W 02:30:49 10° NNW
YAOGAN 11 4.3 02:23:45 17° S 02:26:59 56° WSW 02:31:27 10° NNW
Cosmos 1271 Rocket 2.6 02:25:12 10° NNW 02:29:01 89° E 02:32:45 11° S
CZ-2D R/B 2.7 02:34:40 10° N 02:39:47 44° WNW 02:43:47 16° SW
Lacrosse 5 1.9 02:37:42 16° SW 02:41:48 84° NW 02:46:56 10° NE
Helios 1B rocket 4.1 02:40:21 10° NE 02:43:57 29° E 02:47:31 10° SSE
Cosmos 2341 Rocket 4.4 02:39:31 10° N 02:45:55 70° ENE 02:52:18 10° SSE
USA 305 3.8 02:43:35 10° W 02:47:37 45° NNW 02:51:39 10° ENE
Cosmos 2154 Rocket 4.2 02:43:08 10° NNW 02:49:21 58° W 02:55:30 10° S
BREEZE-M DEB (TANK) 4.2 02:47:13 14° SSW 02:50:18 24° SSE 02:52:37 10° E
Cosmos 407 Rocket 4.1 02:46:14 10° NNW 02:51:33 63° ENE 02:56:46 10° SE
SL-8 Rocket 4.5 02:46:21 10° N 02:52:39 66° ENE 02:58:55 10° SSE
Cosmos 1943 3.9 02:51:07 10° S 02:56:36 51° ESE 03:02:06 10° NE
AQUA 4.5 02:52:17 10° N 02:56:46 42° WNW 03:00:41 13° SW
Cosmos 1328 4.5 02:53:00 10° S 02:56:50 53° E 03:00:44 10° NNE
Helios 1A 3.5 02:53:26 11° S 02:57:14 42° W 03:01:16 10° NNW
Cosmos 2237 Rocket 3.9 02:54:19 10° W 02:58:47 23° NW 03:03:17 10° N
Genesis I 3.9 02:54:52 10° NNW 02:58:55 61° NE 03:02:53 10° SE
Lacrosse 5 rocket 1.3 02:57:25 14° SW 03:00:43 83° NW 03:04:52 10° NE
Cosmos 1140 Rocket 3.7 02:57:15 10° NNW 03:02:32 79° ENE 03:07:47 10° SSE
SL-16 R/B 3.4 02:59:47 12° SSW 03:04:44 30° W 03:10:07 10° NW
Resurs 1-4 Rocket 3.4 03:04:10 10° N 03:08:29 26° WNW 03:12:47 10° WSW
Lacrosse 4 Rocket 4.1 03:07:17 10° SE 03:09:02 12° ESE 03:10:46 10° E
Cosmos 1892 Rocket 4.1 03:06:13 10° S 03:10:37 61° E 03:15:04 10° NNE
Cosmos 1726 Rocket 3.6 03:08:19 10° N 03:12:46 87° W 03:17:09 10° S
Cosmos 1703 3.8 03:11:07 11° SSW 03:14:41 42° WNW 03:18:27 10° N
Cosmos 1943 Rocket 3.4 03:11:32 10° NW 03:15:47 22° W 03:20:01 10° SSW
Cosmos 2263 4.2 03:11:12 10° NNW 03:16:52 70° WSW 03:22:32 10° SSE
FENGYUN 3A 4.4 03:11:50 10° NNE 03:17:07 53° E 03:22:22 10° S
NOSS 3-3 (A) 4.1 03:13:47 10° SSW 03:19:24 69° SE 03:25:53 10° NE
NOSS 3-3 (C) 4.1 03:13:54 10° SSW 03:19:30 68° SE 03:25:59 10° NE
Cosmos 1023 Rocket 4.5 03:15:33 10° NNW 03:20:50 72° WSW 03:26:03 10° SSE
ADEOS II 3.1 03:19:45 10° N 03:24:26 33° WNW 03:29:05 10° SW
IDEFIX/ARIANE 42P 3.4 03:20:25 10° N 03:25:17 39° WNW 03:30:08 10° SW
Cosmos 1825 4.5 03:22:30 10° SE 03:25:30 24° E 03:28:31 10° NE
SL-24 DEB 4.3 03:22:20 10° S 03:27:05 88° W 03:31:49 10° N
ARIANE 5 R/B 3.6 03:22:30 10° NNE 03:27:21 44° E 03:32:07 10° S
USA 306 4.2 03:25:57 10° WNW 03:29:51 38° N 03:33:47 10° ENE
CBERS-1 4.1 03:25:12 10° NNE 03:30:21 81° WNW 03:35:28 10° SSW
ERBS 4.4 03:29:17 10° WNW 03:31:38 20° NNW 03:33:59 10° NE
USA 307 4.2 03:29:25 10° WNW 03:33:22 38° N 03:37:18 10° ENE
Cosmos 2218 Rocket 4.0 03:28:16 10° NNW 03:34:30 77° W 03:40:47 10° S
DEBRIS 3.4 03:32:02 10° WNW 03:41:19 71° SSW 03:44:20 10° ESE
